EHI
0 0 1 2 3 3 3 2 1 0 0 0 0 0 0 0 0 0 0 0 0 0 0 0 0 0 0 0 0 0 0 0 0 0 0 0 0 0 0 0 0 0 0
0 0 1 2 3 3 3 3 1 0 0 0 0 0 0 0 0 0 0 0 0 0 0 0 0 0 0 0 0 0 0 0 0 0 0 0 0 0 0 0 0 0 0
0 0 0 1 3 3 3 3 2 1 0 0 0 1 1 1 0 0 0 0 0 0 0 0 0 0 0 0 0 0 0 0 0 0 0 0 0 0 0 0 0 0 0
0 0 0 1 2 3 3 3 3 1 0 1 1 2 2 2 1 0 0 0 0 0 0 0 0 0 0 0 0 0 0 0 0 0 0 0 0 0 0 0 0 0 0
0 0 0 0 1 1 2 3 3 2 1 1 2 3 3 2 1 0 0 0 0 0 0 0 0 0 0 0 0 0 0 0 0 0 0 0 0 0 0 0 0 0 0
0 0 0 0 0 0 1 1 2 2 1 1 1 2 1 1 0 0 0 0 0 0 0 0 0 0 0 0 0 0 0 0 0 0 0 0 0 0 0 0 0 0 0
0 0 0 0 0 0 0 0 1 2 1 0 0 0 0 0 0 0 0 0 0 0 0 0 0 0 0 0 0 0 0 0 0 0 0 0 0 0 0 0 0 0 0
0 0 0 0 0 0 0 0 0 1 1 0 0 0 0 0 0 0 0 0 0 0 0 0 0 0 0 0 0 0 0 0 0 0 0 0 0 0 0 0 0 0 0
0 0 0 0 0 0 0 0 0 0 0 0 0 0 0 0 0 0 0 0 0 0 0 0 0 0 0 0 0 0 0 0 0 0 0 0 0 0 0 0 0 0 0
0 0 0 0 0 0 0 0 0 0 0 0 0 0 0 0 0 0 0 0 1 1 0 0 0 0 0 0 0 0 0 0 0 0 0 0 0 0 0 0 0 0 0
1 1 0 0 0 0 0 1 1 1 0 0 0 0 0 0 0 0 0 0 1 2 1 1 0 0 0 0 0 0 0 0 0 0 0 0 0 0 0 0 0 0 0
2 2 2 1 0 0 1 2 2 2 1 0 0 0 0 1 0 0 0 0 1 2 2 2 1 0 0 0 0 0 0 0 0 0 0 0 0 0 0 0 0 0 0
2 4 4 3 1 0 1 2 3 3 1 1 1 0 0 0 0 0 0 0 0 1 2 2 1 0 0 0 0 0 0 0 0 0 0 0 0 0 0 0 0 0 0
1 3 4 4 2 1 1 2 3 3 3 2 2 1 0 0 0 0 0 0 0 0 1 1 0 0 0 0 0 0 0 0 0 0 0 0 0 0 0 0 0 0 0
1 2 3 3 2 1 1 1 2 2 2 2 2 1 0 0 0 0 0 0 0 0 0 0 0 0 0 0 0 0 0 0 0 0 0 0 0 0 0 0 0 0 0
1 2 2 1 0 0 0 0 1 1 1 1 1 0 0 0 0 0 0 0 0 0 0 0 0 0 0 0 0 0 0 0 0 0 0 0 0 0 0 0 0 0 0
0 1 1 0 0 0 0 0 0 0 0 0 0 0 0 0 0 0 0 0 0 0 0 0 0 0 0 0 0 0 0 0 0 0 0 0 0 0 0 0 0 0 0
0 0 0 0 0 0 0 0 0 0 0 0 0 0 0 0 0 0 0 0 0 0 0 0 0 0 0 0 0 0 0 0 0 0 0 0 0 0 0 0 0 0 0
0 0 0 0 0 0 0 0 0 0 0 0 0 0 0 0 0 0 0 0 0 0 0 0 0 0 0 0 0 0 0 0 0 0 0 0 0 0 0 0 0 0 0
0 0 0 0 0 0 0 0 0 1 0 0 0 0 0 0 0 0 0 0 0 0 0 0 0 0 0 0 0 0 0 0 0 0 0 0 0 0 0 0 0 0 0
0 0 0 0 0 0 0 0 0 0 0 0 0 0 0 0 0 0 0 0 0 0 0 0 0 0 0 0 0 0 0 0 0 0 0 0 0 0 0 0 0 0 0
0 0 0 0 0 0 0 0 0 0 0 0 0 0 0 0 0 0 0 0 0 0 0 0 0 0 0 0 0 0 0 0 0 0 0 0 0 0 0 0 0 0 0
0 0 0 0 0 0 0 0 0 0 0 0 0 0 0 0 0 0 0 0 0 0 0 0 0 0 0 0 0 0 0 0 0 0 0 0 0 0 0 0 0 0 0
0 0 0 0 0 0 0 0 0 0 0 0 0 0 0 0 0 0 0 0 0 0 0 0 0 0 0 0 0 0 0 0 0 0 0 0 0 0 0 0 0 0 0
0 0 0 0 0 0 0 0 0 0 0 0 0 0 0 0 0 0 0 0 0 0 0 0 0 0 0 0 0 0 0 0 0 0 0 0 0 0 0 0 0 0 0
0 0 0 0 0 0 0 0 0 0 0 0 0 0 0 0 0 0 0 0 0 0 0 0 0 0 0 0 0 0 0 0 0 0 0 0 0 0 0 0 0 0 0
Wind_Speed
8 7 6 6 5 5 5 5 4 4 5 5 4 4 4 4 4 3 3 3 3 3 3 2 2 2 1 1 1 1 1 0 2 1 1 2 2 2 2 2 2 2 5
7 6 6 5 5 5 5 5 5 5 5 5 4 4 4 4 4 4 4 3 3 2 2 2 2 2 2 1 1 1 1 1 2 2 2 1 2 1 1 1 1 2 3
6 6 6 6 6 6 5 5 5 5 5 5 5 4 4 4 4 4 4 4 3 2 2 2 2 2 2 2 2 1 1 2 2 2 2 1 1 1 1 1 2 1 1
6 6 6 6 6 5 5 4 5 5 5 5 5 4 4 4 4 4 4 4 3 3 2 2 1 2 2 2 2 2 2 3 2 2 2 2 1 1 1 1 1 1 0
6 7 6 6 5 5 5 4 4 4 4 4 4 4 4 3 3 3 4 4 3 3 3 2 1 2 3 1 0 1 2 2 2 2 2 2 2 1 1 1 1 1 1
6 6 6 6 5 5 5 5 4 4 4 4 4 4 4 2 3 2 2 4 3 3 3 3 3 3 4 4 4 3 2 1 2 2 1 1 1 1 1 1 1 1 1
6 6 6 6 6 5 5 5 5 4 4 4 4 4 4 4 5 4 2 3 3 2 2 3 2 2 3 4 5 5 3 3 2 1 1 1 1 1 1 2 1 1 1
6 5 6 6 6 5 5 5 5 4 4 4 4 4 3 4 6 5 4 4 3 3 2 3 3 3 2 2 4 3 3 3 1 1 0 1 1 1 1 1 1 1 1
6 6 6 6 6 6 6 5 4 4 4 4 4 4 4 5 6 6 5 4 3 3 3 2 3 3 3 1 3 4 4 4 4 5 6 5 5 5 3 0 0 1 1
6 6 6 6 6 6 6 6 5 4 4 4 4 4 4 4 6 6 6 3 4 4 3 3 2 2 4 2 3 3 3 3 3 4 3 3 3 3 0 1 1 2 2
5 5 5 6 6 6 5 5 5 5 4 4 4 4 4 4 6 6 5 3 3 4 4 3 3 5 5 3 2 2 2 1 2 2 2 2 2 1 1 1 1 2 2
4 5 5 5 5 4 5 5 5 5 5 5 4 4 3 3 3 5 5 4 2 3 3 3 4 7 6 5 3 3 3 2 2 2 2 1 1 1 0 0 0 1 2
5 5 5 5 5 5 5 5 5 5 4 4 4 3 3 3 4 5 6 5 3 2 2 3 5 7 6 5 4 5 5 3 2 2 2 1 1 1 1 1 1 0 1
6 6 6 5 5 5 4 4 4 5 5 4 4 4 4 3 4 4 4 4 5 3 3 5 6 5 3 3 5 5 3 2 2 2 1 1 1 1 1 1 1 1 1
6 5 6 5 5 4 4 3 5 5 4 5 5 5 5 5 4 5 4 4 4 4 4 4 4 4 4 4 3 3 3 3 3 2 2 2 2 2 1 1 1 2 2
5 5 4 4 4 4 4 3 1 1 2 3 2 3 3 3 7 7 6 5 5 7 5 4 4 4 4 4 4 4 4 4 3 3 3 3 3 2 2 1 2 2 2
5 5 4 4 4 5 5 5 4 3 3 3 4 4 4 6 7 8 7 7 7 8 5 4 4 5 5 5 5 4 4 4 3 4 3 3 3 3 2 2 2 2 3
5 5 4 4 5 5 5 5 5 5 5 4 4 6 6 7 8 8 9 7 5 6 5 4 4 4 4 4 4 4 4 4 4 4 4 4 3 3 3 3 3 3 3
5 4 4 4 4 5 5 5 5 6 5 4 4 5 7 7 7 8 9 5 5 5 5 5 4 4 4 4 4 4 4 4 4 4 4 4 4 4 3 3 3 3 4
5 5 5 4 4 4 5 5 5 5 5 5 5 5 6 6 5 6 6 6 5 5 5 5 5 5 4 4 4 4 4 4 4 4 4 4 4 4 4 4 4 3 3
4 5 7 5 5 5 5 5 5 6 6 6 6 6 8 7 6 7 6 6 6 6 6 5 5 5 5 4 4 5 5 4 4 4 4 4 4 4 4 4 4 4 4
4 5 6 6 5 5 5 5 5 6 6 7 5 6 9 7 6 6 6 6 6 5 5 5 5 5 5 5 5 5 5 5 5 4 4 4 4 4 4 4 4 4 4
5 5 5 5 5 5 6 5 5 6 6 6 6 6 7 6 6 6 6 6 5 5 5 5 5 5 5 4 5 5 5 5 5 5 5 5 5 5 5 5 6 5 5
5 6 6 5 5 5 6 6 5 6 6 6 6 6 6 6 6 7 6 5 5 5 5 5 5 7 7 5 4 4 4 4 4 5 6 5 5 5 5 5 6 6 5
5 5 6 5 5 6 6 6 6 6 6 6 5 6 6 6 6 6 6 6 6 6 6 6 5 6 8 8 6 5 4 4 5 4 5 5 5 5 6 6 5 5 5
5 6 5 5 5 6 6 6 6 6 5 5 5 6 6 6 5 6 6 6 5 5 6 5 6 7 7 7 7 6 6 6 6 6 5 4 5 5 5 5 6 5 6
Wind_Direction
190 191 188 185 187 189 194 193 191 189 190 192 187 183 180 179 180 178 184 177 180 170 175 175 162 160 162 177 211 226 242 195 138 131 132 118 126 118 122 119 114 111 98
191 188 188 181 185 192 194 194 194 192 194 197 192 189 186 187 189 183 178 180 182 181 177 172 155 145 153 170 184 171 136 148 160 152 147 146 140 116 130 147 128 103 97
186 184 186 188 192 194 195 193 194 194 192 194 191 189 187 188 190 189 180 174 173 176 181 172 156 155 160 153 163 158 140 129 138 157 145 142 158 144 148 143 132 118 116
182 183 189 193 194 195 190 190 191 193 192 192 187 183 185 187 191 191 183 173 169 171 178 177 171 171 176 162 165 162 154 145 148 156 153 152 146 153 194 194 167 153 137
182 184 187 188 185 182 177 182 181 182 190 186 175 177 176 179 189 190 181 176 172 167 164 158 119 75 43 58 151 170 163 163 159 161 166 164 157 173 212 226 236 210 145
187 183 178 179 174 175 176 169 164 170 174 170 176 175 170 160 122 140 197 176 171 171 170 163 149 144 120 106 85 55 19 196 173 168 179 191 181 194 221 229 235 248 213
186 179 174 174 170 177 174 163 163 168 168 170 172 174 177 150 141 150 188 193 174 174 179 165 144 142 164 152 135 133 100 51 351 271 215 262 269 259 248 241 245 264 306
188 184 177 173 173 174 171 170 177 170 168 179 175 175 168 151 147 155 174 189 173 175 179 173 167 158 145 163 148 139 124 109 90 227 157 61 10 342 281 282 275 253 222
193 189 178 176 178 177 175 175 178 174 175 182 178 174 172 162 156 166 187 180 174 171 168 169 171 155 116 188 167 152 141 125 95 73 53 66 60 36 355 287 253 247 244
194 192 181 179 182 184 180 175 171 175 182 178 176 183 180 176 159 175 199 184 178 170 164 156 120 138 137 181 185 172 168 150 146 142 142 150 147 122 200 264 275 275 282
190 188 183 180 186 183 176 172 171 172 174 176 173 177 179 173 161 175 199 200 185 180 172 169 150 142 147 169 211 182 152 172 170 171 163 151 149 138 156 239 295 293 291
188 187 185 181 179 173 169 171 176 171 171 173 175 168 172 164 164 170 182 199 211 191 186 176 150 152 156 168 178 120 131 186 185 183 182 178 181 180 169 152 301 300 309
192 190 189 184 179 177 175 173 177 178 180 180 181 179 174 167 156 157 173 183 196 201 166 121 139 160 165 165 154 156 174 187 185 198 200 195 194 179 155 165 219 243 282
194 191 189 186 181 183 182 183 184 184 185 186 186 189 182 176 174 168 172 169 165 172 160 137 142 153 177 151 157 174 198 195 207 202 196 186 177 189 200 211 225 226 248
198 194 192 186 181 187 187 195 201 197 195 194 195 195 190 193 182 171 179 183 186 180 164 162 166 169 179 183 186 186 191 189 199 203 198 195 199 209 213 227 251 251 255
201 195 194 186 182 186 184 181 153 211 159 184 188 201 193 159 144 156 168 162 155 159 170 178 185 191 194 195 197 199 202 201 201 201 203 208 212 215 212 222 238 241 253
207 200 194 194 189 190 190 192 187 159 142 175 178 181 184 158 157 164 166 160 159 166 190 197 200 202 206 206 206 209 209 206 204 205 209 211 212 215 219 219 228 246 255
209 203 199 198 199 197 197 198 199 192 186 188 180 177 175 172 169 165 159 154 169 192 210 210 211 211 208 208 206 207 210 209 208 208 211 212 212 217 220 225 229 243 258
209 205 202 202 202 200 199 199 200 200 198 190 178 171 176 173 168 168 170 193 197 202 211 214 214 212 211 209 208 211 210 211 213 212 212 212 213 220 224 227 230 237 249
208 199 203 204 202 200 198 200 202 202 201 196 194 186 171 176 185 183 197 213 213 211 211 212 211 212 211 211 209 210 212 212 213 216 215 212 212 219 224 227 229 232 241
208 195 191 204 206 202 202 203 205 208 208 205 204 189 177 191 197 198 203 211 214 214 214 213 208 207 210 208 208 211 215 215 214 216 214 212 214 219 225 227 227 231 239
210 206 201 203 204 205 207 206 208 212 212 212 206 184 178 199 204 205 209 213 216 218 216 213 211 208 207 209 211 213 217 219 216 214 215 214 214 215 219 224 223 226 233
213 212 209 205 207 202 208 211 211 213 212 210 204 194 188 204 210 211 211 212 212 213 212 212 212 211 210 211 214 217 220 221 218 213 213 216 215 213 215 221 225 229 233
210 212 210 207 207 211 213 211 212 214 213 210 207 206 203 206 211 212 211 209 208 208 207 210 214 215 213 213 216 217 221 221 219 215 212 215 215 214 215 221 226 229 235
212 213 211 210 211 214 215 212 212 212 212 213 213 212 211 209 210 210 209 206 205 207 208 209 211 212 214 216 216 214 200 203 216 221 209 210 214 217 220 223 225 230 234
216 216 214 214 217 218 216 213 214 215 215 215 216 215 213 211 210 209 207 203 201 203 206 209 210 210 211 213 211 206 197 194 200 217 217 208 212 216 221 225 226 230 234